| time (UTC) | temp F | wind direction | speed MPH | gust MPH | rain 1hr in | rain 24hr in | rain mn in | humidity % | barometer mb |
| 20260510124538 | 63 | 259 | 2.0 | 6.0 | 0.00 | 0.00 | 0.00 | 80 | 1015.3 |
| 20260510123040 | 60 | 254 | 3.0 | 5.0 | 0.00 | 0.00 | 0.00 | 86 | 1015.2 |
| 20260510121537 | 58 | 241 | 2.0 | 3.0 | 0.00 | 0.00 | 0.00 | 94 | 1014.9 |
| 20260510120037 | 57 | 200 | 1.0 | 3.0 | 0.00 | 0.00 | 0.00 | 96 | 1014.6 |
| 20260510114554 | 56 | 190 | 1.0 | 2.0 | 0.00 | 0.00 | 0.00 | 96 | 1014.4 |
| 20260510113050 | 54 | 0 | 0.0 | 2.0 | 0.00 | 0.00 | 0.00 | 96 | 1014.3 |
| 20260510111541 | 54 | 273 | 0.0 | 0.0 | 0.00 | 0.00 | 0.00 | 95 | 1014.1 |
| 20260510110040 | 53 | 0 | 0.0 | 2.0 | 0.00 | 0.00 | 0.00 | 94 | 1013.9 |
| 20260510104543 | 53 | 338 | 1.0 | 3.0 | 0.00 | 0.00 | 0.00 | 94 | 1013.5 |
| 20260510103035 | 54 | 286 | 1.0 | 3.0 | 0.00 | 0.00 | 0.00 | 93 | 1013.2 |
| 20260510101538 | 55 | 286 | 1.0 | 3.0 | 0.00 | 0.00 | 0.00 | 94 | 1013.0 |
| 20260510100047 | 55 | 0 | 1.0 | 3.0 | 0.00 | 0.00 | 0.00 | 94 | 1013.0 |
| 20260510094537 | 55 | 282 | 1.0 | 3.0 | 0.00 | 0.00 | 0.00 | 94 | 1012.9 |
| 20260510093037 | 56 | 0 | 0.0 | 1.0 | 0.00 | 0.00 | 0.00 | 93 | 1012.7 |
| 20260510091538 | 56 | 0 | 0.0 | 0.0 | 0.00 | 0.00 | 0.00 | 93 | 1012.7 |
| 20260510090036 | 56 | 0 | 0.0 | 0.0 | 0.00 | 0.00 | 0.00 | 92 | 1012.4 |
| 20260510084535 | 56 | 0 | 0.0 | 0.0 | 0.00 | 0.00 | 0.00 | 92 | 1012.2 |
| 20260510083042 | 57 | 0 | 0.0 | 0.0 | 0.00 | 0.00 | 0.00 | 92 | 1012.0 |
| 20260510081537 | 58 | 0 | 0.0 | 0.0 | 0.00 | 0.00 | 0.00 | 92 | 1012.0 |
| 20260510080037 | 58 | 0 | 0.0 | 2.0 | 0.00 | 0.00 | 0.00 | 91 | 1011.8 |
| 20260510074542 | 59 | 309 | 0.0 | 3.0 | 0.00 | 0.00 | 0.00 | 91 | 1011.6 |
| 20260510073039 | 59 | 0 | 0.0 | 4.0 | 0.00 | 0.00 | 0.00 | 91 | 1011.4 |
| 20260510071536 | 59 | 311 | 3.0 | 5.0 | 0.00 | 0.00 | 0.00 | 89 | 1011.5 |
| 20260510070034 | 59 | 296 | 2.0 | 4.0 | 0.00 | 0.00 | 0.00 | 91 | 1011.5 |
| 20260510064543 | 59 | 313 | 2.0 | 4.0 | 0.00 | 0.00 | 0.00 | 90 | 1011.7 |
| 20260510063042 | 60 | 0 | 0.0 | 0.0 | 0.00 | 0.00 | 0.00 | 89 | 1011.7 |
| 20260510061534 | 61 | 0 | 0.0 | 0.0 | 0.00 | 0.00 | 0.00 | 89 | 1011.7 |
| 20260510060040 | 61 | 0 | 0.0 | 0.0 | 0.00 | 0.00 | 0.00 | 88 | 1011.9 |
| 20260510054534 | 62 | 0 | 0.0 | 0.0 | 0.00 | 0.00 | 0.00 | 87 | 1012.0 |
| 20260510053039 | 62 | 0 | 0.0 | 0.0 | 0.00 | 0.00 | 0.00 | 86 | 1012.0 |
| 20260510051536 | 62 | 300 | 2.0 | 3.0 | 0.00 | 0.00 | 0.00 | 86 | 1012.2 |
| 20260510050040 | 63 | 272 | 1.0 | 4.0 | 0.00 | 0.00 | 0.00 | 86 | 1012.2 |
| 20260510044538 | 63 | 267 | 0.0 | 3.0 | 0.00 | 0.00 | 0.00 | 85 | 1012.2 |
| 20260510043035 | 63 | 0 | 0.0 | 0.0 | 0.00 | 0.00 | 0.00 | 85 | 1012.2 |
| 20260510041546 | 63 | 0 | 0.0 | 2.0 | 0.00 | 0.00 | 0.00 | 85 | 1012.2 |
| 20260510040038 | 64 | 226 | 0.0 | 2.0 | 0.00 | 0.00 | 0.00 | 85 | 1012.1 |
| 20260510034537 | 64 | 0 | 0.0 | 0.0 | 0.00 | 0.00 | 0.00 | 84 | 1012.1 |
| 20260510033048 | 64 | 0 | 0.0 | 5.0 | 0.00 | 0.00 | 0.00 | 83 | 1012.0 |
| 20260510031538 | 65 | 0 | 0.0 | 0.0 | 0.00 | 0.00 | 0.00 | 82 | 1011.9 |
| 20260510030034 | 65 | 0 | 0.0 | 0.0 | 0.00 | 0.00 | 0.00 | 82 | 1011.8 |
| 20260510024537 | 65 | 0 | 0.0 | 5.0 | 0.00 | 0.00 | 0.00 | 81 | 1011.6 |
| 20260510023037 | 66 | 166 | 3.0 | 6.0 | 0.00 | 0.00 | 0.00 | 80 | 1011.5 |
| 20260510021540 | 66 | 157 | 1.0 | 6.0 | 0.00 | 0.00 | 0.00 | 79 | 1011.4 |
| 20260510020038 | 67 | 146 | 2.0 | 6.0 | 0.00 | 0.00 | 0.00 | 78 | 1011.3 |
| 20260510014536 | 67 | 144 | 2.0 | 8.0 | 0.00 | 0.00 | 0.00 | 77 | 1010.9 |
| 20260510013040 | 67 | 176 | 2.0 | 9.0 | 0.00 | 0.00 | 0.00 | 76 | 1010.8 |
| 20260510011538 | 68 | 163 | 3.0 | 7.0 | 0.00 | 0.00 | 0.00 | 75 | 1010.4 |
| 20260510010037 | 68 | 148 | 3.0 | 8.0 | 0.00 | 0.00 | 0.00 | 73 | 1010.2 |
| 20260510004534 | 69 | 129 | 2.0 | 8.0 | 0.00 | 0.00 | 0.00 | 72 | 1009.9 |
| 20260510003052 | 69 | 125 | 3.0 | 8.0 | 0.00 | 0.00 | 0.00 | 70 | 1009.8 |
| 20260510001543 | 70 | 140 | 2.0 | 7.0 | 0.00 | 0.00 | 0.00 | 68 | 1009.9 |
| 20260510000043 | 71 | 167 | 3.0 | 5.0 | 0.00 | 0.00 | 0.00 | 66 | 1009.8 |
| 20260509234539 | 72 | 170 | 3.0 | 6.0 | 0.00 | 0.00 | 0.00 | 64 | 1009.5 |
| 20260509233032 | 72 | 134 | 3.0 | 7.0 | 0.00 | 0.00 | 0.00 | 63 | 1009.4 |
| 20260509231531 | 73 | 141 | 6.0 | 8.0 | 0.00 | 0.00 | 0.00 | 61 | 1009.1 |
| 20260509230038 | 74 | 121 | 6.0 | 12.0 | 0.00 | 0.00 | 0.00 | 60 | 1009.0 |
| 20260509224537 | 74 | 136 | 6.0 | 11.0 | 0.00 | 0.00 | 0.00 | 60 | 1008.9 |
| 20260509223035 | 73 | 178 | 4.0 | 11.0 | 0.00 | 0.00 | 0.00 | 61 | 1008.9 |
| 20260509221535 | 73 | 136 | 4.0 | 8.0 | 0.00 | 0.00 | 0.00 | 60 | 1009.1 |
| 20260509220047 | 73 | 198 | 5.0 | 9.0 | 0.00 | 0.00 | 0.00 | 59 | 1008.9 |
| 20260509214541 | 73 | 157 | 5.0 | 9.0 | 0.00 | 0.00 | 0.00 | 59 | 1009.0 |
| 20260509213041 | 74 | 149 | 5.0 | 9.0 | 0.00 | 0.00 | 0.00 | 56 | 1008.8 |
| 20260509211542 | 75 | 180 | 5.0 | 13.0 | 0.00 | 0.00 | 0.00 | 54 | 1008.5 |
| 20260509210037 | 75 | 199 | 5.0 | 16.0 | 0.00 | 0.00 | 0.00 | 56 | 1008.6 |
| 20260509204541 | 74 | 192 | 4.0 | 12.0 | 0.00 | 0.00 | 0.00 | 57 | 1008.6 |
| 20260509203036 | 75 | 185 | 7.0 | 16.0 | 0.00 | 0.00 | 0.00 | 56 | 1008.5 |
| 20260509201538 | 74 | 150 | 4.0 | 10.0 | 0.00 | 0.00 | 0.00 | 58 | 1008.7 |
| 20260509200041 | 74 | 226 | 3.0 | 10.0 | 0.00 | 0.00 | 0.00 | 58 | 1008.9 |
| 20260509194542 | 73 | 170 | 6.0 | 10.0 | 0.00 | 0.00 | 0.00 | 59 | 1009.1 |
| 20260509193042 | 74 | 209 | 4.0 | 12.0 | 0.00 | 0.00 | 0.00 | 58 | 1009.0 |
| 20260509191532 | 74 | 150 | 5.0 | 11.0 | 0.00 | 0.00 | 0.00 | 58 | 1009.1 |
| 20260509190035 | 73 | 138 | 5.0 | 11.0 | 0.00 | 0.00 | 0.00 | 58 | 1009.3 |
| 20260509184539 | 74 | 238 | 7.0 | 11.0 | 0.00 | 0.00 | 0.00 | 56 | 1009.3 |
| 20260509183038 | 72 | 186 | 5.0 | 12.0 | 0.00 | 0.00 | 0.00 | 58 | 1009.6 |
| 20260509181539 | 72 | 217 | 6.0 | 12.0 | 0.00 | 0.00 | 0.00 | 59 | 1010.1 |
| 20260509180034 | 73 | 132 | 6.0 | 19.0 | 0.00 | 0.00 | 0.00 | 55 | 1010.1 |
| 20260509174532 | 73 | 167 | 7.0 | 16.0 | 0.00 | 0.00 | 0.00 | 57 | 1010.2 |
| 20260509173038 | 72 | 221 | 8.0 | 12.0 | 0.00 | 0.00 | 0.00 | 57 | 1010.2 |
| 20260509171541 | 73 | 198 | 7.0 | 17.0 | 0.00 | 0.00 | 0.00 | 58 | 1010.5 |
| 20260509170040 | 73 | 207 | 9.0 | 15.0 | 0.00 | 0.00 | 0.00 | 56 | 1010.7 |
| 20260509164537 | 71 | 184 | 9.0 | 16.0 | 0.00 | 0.00 | 0.00 | 59 | 1011.0 |
| 20260509163037 | 70 | 186 | 7.0 | 18.0 | 0.00 | 0.00 | 0.00 | 61 | 1011.2 |
| 20260509161534 | 70 | 186 | 7.0 | 15.0 | 0.00 | 0.00 | 0.00 | 63 | 1011.1 |
| 20260509160034 | 69 | 192 | 8.0 | 18.0 | 0.00 | 0.00 | 0.00 | 63 | 1011.1 |
| 20260509154541 | 69 | 136 | 8.0 | 17.0 | 0.00 | 0.00 | 0.00 | 64 | 1011.1 |
| 20260509153037 | 68 | 150 | 5.0 | 10.0 | 0.00 | 0.00 | 0.00 | 65 | 1011.3 |
| 20260509151537 | 67 | 227 | 7.0 | 14.0 | 0.00 | 0.00 | 0.00 | 68 | 1011.5 |
| 20260509150037 | 68 | 196 | 1.0 | 10.0 | 0.00 | 0.00 | 0.00 | 66 | 1011.4 |
| 20260509144541 | 66 | 136 | 4.0 | 11.0 | 0.00 | 0.00 | 0.00 | 68 | 1011.5 |
| 20260509143041 | 65 | 121 | 4.0 | 13.0 | 0.00 | 0.00 | 0.00 | 69 | 1011.8 |
| 20260509141538 | 64 | 173 | 6.0 | 15.0 | 0.00 | 0.00 | 0.00 | 71 | 1011.9 |
| 20260509140056 | 64 | 164 | 5.0 | 12.0 | 0.00 | 0.00 | 0.00 | 72 | 1012.3 |
| 20260509134534 | 61 | 171 | 5.0 | 9.0 | 0.00 | 0.00 | 0.00 | 75 | 1012.4 |
| 20260509133038 | 60 | 172 | 6.0 | 11.0 | 0.00 | 0.00 | 0.00 | 77 | 1012.9 |
| 20260509131548 | 59 | 186 | 6.0 | 12.0 | 0.00 | 0.00 | 0.00 | 77 | 1012.9 |
| 20260509130037 | 58 | 236 | 4.0 | 10.0 | 0.00 | 0.00 | 0.00 | 79 | 1013.2 |